Time,TemperatureF,DewpointF,PressureIn,WindDirection,WindDirectionDegrees,WindSpeedMPH,WindSpeedGustMPH,Humidity,HourlyPrecipIn,Conditions,Clouds,dailyrainin,SoftwareType,DateUTC
2013-07-29 00:01:00,73.0,62.3,29.59,SSW,207,0.0,0.0,69,0.00,,,0.00,VWS V14.00,2013-07-29 04:01:00,
2013-07-29 00:02:00,73.0,62.3,29.59,SSW,207,0.0,0.0,69,0.00,,,0.00,VWS V14.00,2013-07-29 04:02:00,
2013-07-29 00:07:00,73.0,61.9,29.59,SSW,213,0.0,0.0,68,0.00,,,0.00,VWS V14.00,2013-07-29 04:07:00,
2013-07-29 00:12:00,73.0,61.9,29.62,SSW,213,0.0,0.0,68,0.00,,,0.00,VWS V14.00,2013-07-29 04:12:00,
2013-07-29 00:17:00,73.0,61.9,29.62,SSW,213,0.0,0.0,68,0.00,,,0.00,VWS V14.00,2013-07-29 04:17:00,
2013-07-29 00:22:00,73.0,61.9,29.62,WSW,241,3.1,4.0,68,0.00,,,0.00,VWS V14.00,2013-07-29 04:22:00,
2013-07-29 00:27:00,73.2,62.5,29.62,WSW,248,0.0,2.7,69,0.00,,,0.00,VWS V14.00,2013-07-29 04:27:00,
2013-07-29 00:32:00,73.2,62.5,29.62,WSW,248,0.0,0.0,69,0.00,,,0.00,VWS V14.00,2013-07-29 04:32:00,
2013-07-29 00:37:00,73.4,63.0,29.62,SW,231,0.0,3.1,70,0.00,,,0.00,VWS V14.00,2013-07-29 04:37:00,
2013-07-29 00:42:00,73.4,63.4,29.62,SW,231,0.0,0.0,71,0.00,,,0.00,VWS V14.00,2013-07-29 04:42:00,
2013-07-29 00:47:00,73.6,63.6,29.62,WSW,243,0.0,0.0,71,0.00,,,0.00,VWS V14.00,2013-07-29 04:47:00,
2013-07-29 00:52:00,73.6,63.6,29.62,WSW,243,0.0,0.0,71,0.00,,,0.00,VWS V14.00,2013-07-29 04:52:00,
2013-07-29 00:57:00,73.4,63.4,29.62,WSW,238,0.0,0.0,71,0.00,,,0.00,VWS V14.00,2013-07-29 04:57:00,
2013-07-29 01:02:00,73.4,63.4,29.62,SW,227,0.0,0.0,71,0.00,,,0.00,VWS V14.00,2013-07-29 05:02:00,
2013-07-29 01:07:00,73.4,63.8,29.62,WSW,239,2.7,3.6,72,0.00,,,0.00,VWS V14.00,2013-07-29 05:07:00,
2013-07-29 01:12:00,73.2,64.1,29.62,WSW,255,2.7,3.6,73,0.00,,,0.00,VWS V14.00,2013-07-29 05:12:00,
2013-07-29 01:17:00,73.0,63.5,29.62,WSW,248,0.0,0.0,72,0.00,,,0.00,VWS V14.00,2013-07-29 05:17:00,
2013-07-29 01:22:00,73.0,63.5,29.62,WSW,247,3.1,3.1,72,0.00,,,0.00,VWS V14.00,2013-07-29 05:22:00,
2013-07-29 01:27:00,72.9,63.7,29.62,SW,235,0.0,0.0,73,0.00,,,0.00,VWS V14.00,2013-07-29 05:27:00,
2013-07-29 01:32:00,72.7,63.5,29.62,WSW,254,0.0,0.0,73,0.00,,,0.00,VWS V14.00,2013-07-29 05:32:00,
2013-07-29 01:37:00,72.5,63.4,29.62,WSW,246,0.0,0.0,73,0.00,,,0.00,VWS V14.00,2013-07-29 05:37:00,
2013-07-29 01:42:00,72.3,63.2,29.59,WSW,246,0.0,0.0,73,0.00,,,0.00,VWS V14.00,2013-07-29 05:42:00,
2013-07-29 01:47:00,72.1,63.4,29.59,WSW,256,0.0,0.0,74,0.00,,,0.00,VWS V14.00,2013-07-29 05:47:00,
2013-07-29 01:52:00,72.0,63.2,29.59,WSW,256,0.0,0.0,74,0.00,,,0.00,VWS V14.00,2013-07-29 05:52:00,
2013-07-29 01:57:00,71.8,63.4,29.59,WSW,256,0.0,0.0,75,0.00,,,0.00,VWS V14.00,2013-07-29 05:57:00,
2013-07-29 02:02:00,71.6,63.3,29.59,WSW,256,0.0,0.0,75,0.00,,,0.00,VWS V14.00,2013-07-29 06:02:00,
2013-07-29 02:07:00,71.4,63.5,29.59,WSW,256,0.0,0.0,76,0.00,,,0.00,VWS V14.00,2013-07-29 06:07:00,
2013-07-29 02:12:00,71.4,63.5,29.59,WSW,256,0.0,0.0,76,0.00,,,0.00,VWS V14.00,2013-07-29 06:12:00,
2013-07-29 02:17:00,71.2,63.7,29.59,WSW,256,0.0,0.0,77,0.00,,,0.00,VWS V14.00,2013-07-29 06:17:00,
2013-07-29 02:22:00,71.2,63.7,29.59,WSW,256,0.0,0.0,77,0.00,,,0.00,VWS V14.00,2013-07-29 06:22:00,
2013-07-29 02:27:00,71.2,63.7,29.59,WSW,256,0.0,0.0,77,0.00,,,0.00,VWS V14.00,2013-07-29 06:27:00,
2013-07-29 02:32:00,71.1,63.5,29.59,WSW,256,0.0,0.0,77,0.00,,,0.00,VWS V14.00,2013-07-29 06:32:00,
2013-07-29 02:37:00,71.1,63.9,29.59,WSW,256,0.0,0.0,78,0.00,,,0.00,VWS V14.00,2013-07-29 06:37:00,
2013-07-29 02:42:00,70.9,63.7,29.59,WSW,256,0.0,0.0,78,0.00,,,0.00,VWS V14.00,2013-07-29 06:42:00,
2013-07-29 02:47:00,70.9,63.7,29.59,SSW,198,0.0,0.0,78,0.00,,,0.00,VWS V14.00,2013-07-29 06:47:00,
2013-07-29 02:52:00,70.9,64.1,29.59,SSW,198,0.0,0.0,79,0.00,,,0.00,VWS V14.00,2013-07-29 06:52:00,
2013-07-29 02:57:00,70.9,64.1,29.59,SSW,198,0.0,0.0,79,0.00,,,0.00,VWS V14.00,2013-07-29 06:57:00,
2013-07-29 03:02:00,70.7,63.9,29.59,SW,215,0.0,0.0,79,0.00,,,0.00,VWS V14.00,2013-07-29 07:02:00,
2013-07-29 03:07:00,70.7,63.9,29.59,SW,215,0.0,0.0,79,0.00,,,0.00,VWS V14.00,2013-07-29 07:07:00,
2013-07-29 03:12:00,70.5,63.7,29.59,SW,215,0.0,0.0,79,0.00,,,0.00,VWS V14.00,2013-07-29 07:12:00,
2013-07-29 03:17:00,70.5,63.7,29.59,SW,215,0.0,0.0,79,0.00,,,0.00,VWS V14.00,2013-07-29 07:17:00,
2013-07-29 03:22:00,70.3,63.9,29.59,SW,215,0.0,0.0,80,0.00,,,0.00,VWS V14.00,2013-07-29 07:22:00,
2013-07-29 03:27:00,70.3,63.9,29.59,SW,215,0.0,0.0,80,0.00,,,0.00,VWS V14.00,2013-07-29 07:27:00,
2013-07-29 03:32:00,70.3,63.9,29.59,NW,307,0.0,0.0,80,0.00,,,0.00,VWS V14.00,2013-07-29 07:32:00,
2013-07-29 03:37:00,70.2,63.7,29.59,NW,311,0.0,0.0,80,0.00,,,0.00,VWS V14.00,2013-07-29 07:37:00,
2013-07-29 03:42:00,70.2,63.7,29.62,NW,311,0.0,0.0,80,0.00,,,0.00,VWS V14.00,2013-07-29 07:42:00,
2013-07-29 03:47:00,70.2,63.7,29.62,NW,311,0.0,0.0,80,0.00,,,0.00,VWS V14.00,2013-07-29 07:47:00,
2013-07-29 03:52:00,70.0,63.5,29.62,NW,311,0.0,0.0,80,0.00,,,0.00,VWS V14.00,2013-07-29 07:52:00,
2013-07-29 03:57:00,70.0,63.9,29.62,NW,311,0.0,0.0,81,0.00,,,0.00,VWS V14.00,2013-07-29 07:57:00,
2013-07-29 04:02:00,70.0,63.9,29.62,ENE,69,0.0,0.0,81,0.00,,,0.00,VWS V14.00,2013-07-29 08:02:00,
2013-07-29 04:07:00,70.0,63.9,29.62,ENE,69,0.0,0.0,81,0.00,,,0.00,VWS V14.00,2013-07-29 08:07:00,
2013-07-29 04:12:00,70.0,63.9,29.62,ENE,69,0.0,0.0,81,0.00,,,0.00,VWS V14.00,2013-07-29 08:12:00,
2013-07-29 04:17:00,70.0,63.9,29.62,ENE,69,0.0,0.0,81,0.00,,,0.00,VWS V14.00,2013-07-29 08:17:00,
2013-07-29 04:22:00,70.0,63.9,29.62,ENE,69,0.0,0.0,81,0.00,,,0.00,VWS V14.00,2013-07-29 08:22:00,
2013-07-29 04:27:00,69.8,63.7,29.62,ENE,69,0.0,0.0,81,0.00,,,0.00,VWS V14.00,2013-07-29 08:27:00,
2013-07-29 04:32:00,69.8,63.7,29.62,ENE,69,0.0,0.0,81,0.00,,,0.00,VWS V14.00,2013-07-29 08:32:00,
2013-07-29 04:37:00,69.6,63.9,29.62,ENE,69,0.0,0.0,82,0.00,,,0.00,VWS V14.00,2013-07-29 08:37:00,
2013-07-29 04:42:00,69.6,63.9,29.62,ENE,69,0.0,0.0,82,0.00,,,0.00,VWS V14.00,2013-07-29 08:42:00,
2013-07-29 04:47:00,69.6,63.9,29.62,ENE,69,0.0,0.0,82,0.00,,,0.00,VWS V14.00,2013-07-29 08:47:00,
2013-07-29 04:52:00,69.6,63.9,29.62,ENE,69,0.0,0.0,82,0.00,,,0.00,VWS V14.00,2013-07-29 08:52:00,
2013-07-29 04:57:00,69.4,63.7,29.62,ENE,69,0.0,0.0,82,0.00,,,0.00,VWS V14.00,2013-07-29 08:57:00,
2013-07-29 05:02:00,69.4,63.7,29.62,ENE,69,0.0,0.0,82,0.00,,,0.00,VWS V14.00,2013-07-29 09:02:00,
2013-07-29 05:07:00,69.4,63.7,29.62,ENE,69,0.0,0.0,82,0.00,,,0.00,VWS V14.00,2013-07-29 09:07:00,
2013-07-29 05:12:00,69.3,63.5,29.62,ENE,69,0.0,0.0,82,0.00,,,0.00,VWS V14.00,2013-07-29 09:12:00,
2013-07-29 05:17:00,69.3,63.5,29.62,ENE,69,0.0,0.0,82,0.00,,,0.00,VWS V14.00,2013-07-29 09:17:00,
2013-07-29 05:22:00,69.3,63.9,29.62,ENE,69,0.0,0.0,83,0.00,,,0.00,VWS V14.00,2013-07-29 09:22:00,
2013-07-29 05:27:00,69.3,63.9,29.65,ENE,69,0.0,0.0,83,0.00,,,0.00,VWS V14.00,2013-07-29 09:27:00,
2013-07-29 05:32:00,69.4,64.1,29.65,ENE,69,0.0,0.0,83,0.00,,,0.00,VWS V14.00,2013-07-29 09:32:00,
2013-07-29 05:37:00,69.4,64.1,29.65,ENE,69,0.0,0.0,83,0.00,,,0.00,VWS V14.00,2013-07-29 09:37:00,
2013-07-29 05:42:00,69.4,64.1,29.65,ENE,69,0.0,0.0,83,0.00,,,0.00,VWS V14.00,2013-07-29 09:42:00,
2013-07-29 05:47:00,69.4,64.1,29.65,ENE,69,0.0,0.0,83,0.00,,,0.00,VWS V14.00,2013-07-29 09:47:00,
2013-07-29 05:52:00,69.3,63.9,29.65,ENE,69,0.0,0.0,83,0.00,,,0.00,VWS V14.00,2013-07-29 09:52:00,
2013-07-29 05:57:00,69.3,63.9,29.62,ENE,69,0.0,0.0,83,0.00,,,0.00,VWS V14.00,2013-07-29 09:57:00,
2013-07-29 06:02:00,69.1,63.7,29.62,ENE,69,0.0,0.0,83,0.00,,,0.00,VWS V14.00,2013-07-29 10:02:00,
2013-07-29 06:07:00,69.1,63.7,29.62,ENE,69,0.0,0.0,83,0.00,,,0.00,VWS V14.00,2013-07-29 10:07:00,
2013-07-29 06:12:00,69.1,63.7,29.65,ENE,69,0.0,0.0,83,0.00,,,0.00,VWS V14.00,2013-07-29 10:12:00,
2013-07-29 06:17:00,68.9,63.5,29.65,ENE,69,0.0,0.0,83,0.00,,,0.00,VWS V14.00,2013-07-29 10:17:00,
2013-07-29 06:22:00,68.7,63.7,29.65,ENE,69,0.0,0.0,84,0.00,,,0.00,VWS V14.00,2013-07-29 10:22:00,
2013-07-29 06:27:00,68.7,63.7,29.65,ENE,69,0.0,0.0,84,0.00,,,0.00,VWS V14.00,2013-07-29 10:27:00,
2013-07-29 06:32:00,68.7,63.7,29.65,ENE,69,0.0,0.0,84,0.00,,,0.00,VWS V14.00,2013-07-29 10:32:00,
2013-07-29 06:37:00,68.5,63.5,29.65,ENE,69,0.0,0.0,84,0.00,,,0.00,VWS V14.00,2013-07-29 10:37:00,
2013-07-29 06:42:00,68.5,63.5,29.65,ENE,69,0.0,0.0,84,0.00,,,0.00,VWS V14.00,2013-07-29 10:42:00,
2013-07-29 06:47:00,68.5,63.5,29.65,ENE,69,0.0,0.0,84,0.00,,,0.00,VWS V14.00,2013-07-29 10:47:00,
2013-07-29 06:52:00,68.4,63.3,29.65,ENE,69,0.0,0.0,84,0.00,,,0.00,VWS V14.00,2013-07-29 10:52:00,
2013-07-29 06:57:00,68.4,63.3,29.65,ENE,69,0.0,0.0,84,0.00,,,0.00,VWS V14.00,2013-07-29 10:57:00,
2013-07-29 07:03:00,68.4,63.3,29.65,ENE,69,0.0,0.0,84,0.00,,,0.00,VWS V14.00,2013-07-29 11:03:00,
2013-07-29 07:08:00,68.4,63.7,29.65,ENE,69,0.0,0.0,85,0.00,,,0.00,VWS V14.00,2013-07-29 11:08:00,
2013-07-29 07:13:00,68.4,63.7,29.65,ENE,69,0.0,0.0,85,0.00,,,0.00,VWS V14.00,2013-07-29 11:13:00,
2013-07-29 07:18:00,68.4,63.7,29.65,ENE,69,0.0,0.0,85,0.00,,,0.00,VWS V14.00,2013-07-29 11:18:00,
2013-07-29 07:23:00,68.5,63.9,29.65,ENE,69,0.0,0.0,85,0.00,,,0.00,VWS V14.00,2013-07-29 11:23:00,
2013-07-29 07:28:00,68.5,63.9,29.65,ENE,69,0.0,0.0,85,0.00,,,0.00,VWS V14.00,2013-07-29 11:28:00,
2013-07-29 07:33:00,68.7,64.0,29.65,ENE,69,0.0,0.0,85,0.00,,,0.00,VWS V14.00,2013-07-29 11:33:00,
2013-07-29 07:38:00,68.7,64.4,29.65,ENE,69,0.0,0.0,86,0.00,,,0.00,VWS V14.00,2013-07-29 11:38:00,
2013-07-29 07:43:00,69.1,64.7,29.65,ENE,69,0.0,0.0,86,0.00,,,0.00,VWS V14.00,2013-07-29 11:43:00,
2013-07-29 07:48:00,69.1,64.7,29.65,NW,319,0.0,0.0,86,0.00,,,0.00,VWS V14.00,2013-07-29 11:48:00,
2013-07-29 07:53:00,69.4,65.1,29.65,NW,317,0.0,0.0,86,0.00,,,0.00,VWS V14.00,2013-07-29 11:53:00,
2013-07-29 07:59:00,69.4,65.1,29.65,West,262,0.0,0.0,86,0.00,,,0.00,VWS V14.00,2013-07-29 11:59:00,
2013-07-29 08:04:00,69.8,65.4,29.65,WNW,291,0.0,0.0,86,0.00,,,0.00,VWS V14.00,2013-07-29 12:04:00,
2013-07-29 08:09:00,70.0,65.6,29.68,SSW,200,0.0,0.0,86,0.00,,,0.00,VWS V14.00,2013-07-29 12:09:00,
2013-07-29 08:14:00,70.2,65.8,29.68,NW,310,0.0,0.0,86,0.00,,,0.00,VWS V14.00,2013-07-29 12:14:00,
2013-07-29 08:19:00,70.2,65.8,29.68,SW,229,0.0,0.0,86,0.00,,,0.00,VWS V14.00,2013-07-29 12:19:00,
2013-07-29 08:25:00,70.3,66.0,29.68,SSE,148,0.0,0.0,86,0.00,,,0.00,VWS V14.00,2013-07-29 12:25:00,
2013-07-29 08:30:00,70.3,66.0,29.68,West,277,0.0,0.0,86,0.00,,,0.00,VWS V14.00,2013-07-29 12:30:00,
2013-07-29 08:35:00,70.5,66.5,29.68,West,277,0.0,0.0,87,0.00,,,0.00,VWS V14.00,2013-07-29 12:35:00,
2013-07-29 08:40:00,70.5,66.5,29.68,NE,40,0.0,0.0,87,0.00,,,0.00,VWS V14.00,2013-07-29 12:40:00,
2013-07-29 08:45:00,70.7,66.7,29.68,NE,40,0.0,0.0,87,0.00,,,0.00,VWS V14.00,2013-07-29 12:45:00,
2013-07-29 08:50:00,71.1,66.7,29.68,NE,40,0.0,0.0,86,0.00,,,0.00,VWS V14.00,2013-07-29 12:50:00,
2013-07-29 08:55:00,71.1,66.7,29.68,NE,45,0.0,0.0,86,0.00,,,0.00,VWS V14.00,2013-07-29 12:55:00,
2013-07-29 09:00:00,71.6,66.5,29.68,NE,45,0.0,0.0,84,0.00,,,0.00,VWS V14.00,2013-07-29 13:00:00,
2013-07-29 09:05:00,71.8,66.3,29.68,West,265,0.0,2.2,83,0.00,,,0.00,VWS V14.00,2013-07-29 13:05:00,
2013-07-29 09:10:00,72.0,64.7,29.68,WSW,258,0.0,0.0,78,0.00,,,0.00,VWS V14.00,2013-07-29 13:10:00,
2013-07-29 09:15:00,72.3,63.2,29.68,ESE,119,0.0,0.0,73,0.00,,,0.00,VWS V14.00,2013-07-29 13:15:00,
2013-07-29 09:20:00,72.9,62.1,29.68,ENE,58,0.0,0.0,69,0.00,,,0.00,VWS V14.00,2013-07-29 13:20:00,
2013-07-29 09:25:00,73.0,60.2,29.68,WSW,241,0.0,0.0,64,0.00,,,0.00,VWS V14.00,2013-07-29 13:25:00,
2013-07-29 09:30:00,73.6,55.4,29.68,East,84,0.0,0.0,53,0.00,,,0.00,VWS V14.00,2013-07-29 13:30:00,
2013-07-29 09:35:00,73.8,54.0,29.68,ENE,76,0.0,0.0,50,0.00,,,0.00,VWS V14.00,2013-07-29 13:35:00,
2013-07-29 09:40:00,73.9,53.0,29.68,ENE,76,0.0,0.0,48,0.00,,,0.00,VWS V14.00,2013-07-29 13:40:00,
2013-07-29 09:45:00,73.9,53.6,29.68,WSW,239,0.0,0.0,49,0.00,,,0.00,VWS V14.00,2013-07-29 13:45:00,
2013-07-29 09:50:00,73.9,54.2,29.68,SSW,194,0.0,0.0,50,0.00,,,0.00,VWS V14.00,2013-07-29 13:50:00,
2013-07-29 09:55:00,73.9,54.7,29.68,NNW,335,0.0,0.0,51,0.00,,,0.00,VWS V14.00,2013-07-29 13:55:00,
2013-07-29 10:00:00,74.1,54.9,29.68,West,276,3.1,3.1,51,0.00,,,0.00,VWS V14.00,2013-07-29 14:00:00,
2013-07-29 10:05:00,74.3,53.4,29.68,NNW,340,0.0,0.0,48,0.00,,,0.00,VWS V14.00,2013-07-29 14:05:00,
2013-07-29 10:11:00,74.8,53.8,29.71,SSW,201,3.1,3.1,48,0.00,,,0.00,VWS V14.00,2013-07-29 14:11:00,
2013-07-29 10:16:00,75.2,54.2,29.71,NE,48,2.7,2.7,48,0.00,,,0.00,VWS V14.00,2013-07-29 14:16:00,
2013-07-29 10:21:00,75.2,52.4,29.71,NW,311,0.0,0.0,45,0.00,,,0.00,VWS V14.00,2013-07-29 14:21:00,
2013-07-29 10:26:00,75.4,52.0,29.71,NW,323,0.0,0.0,44,0.00,,,0.00,VWS V14.00,2013-07-29 14:26:00,
2013-07-29 10:31:00,75.7,52.3,29.71,ESE,109,2.7,3.6,44,0.00,,,0.00,VWS V14.00,2013-07-29 14:31:00,
2013-07-29 10:36:00,75.9,51.8,29.71,WSW,243,2.2,2.2,43,0.00,,,0.00,VWS V14.00,2013-07-29 14:36:00,
2013-07-29 10:42:00,76.3,52.2,29.71,ENE,61,0.0,0.0,43,0.00,,,0.00,VWS V14.00,2013-07-29 14:42:00,
2013-07-29 10:47:00,76.5,50.4,29.71,ENE,72,3.6,3.6,40,0.00,,,0.00,VWS V14.00,2013-07-29 14:47:00,
2013-07-29 10:52:00,76.5,51.7,29.71,ENE,63,0.0,2.2,42,0.00,,,0.00,VWS V14.00,2013-07-29 14:52:00,
2013-07-29 10:57:00,76.6,50.5,29.71,ESE,110,2.7,3.1,40,0.00,,,0.00,VWS V14.00,2013-07-29 14:57:00,
2013-07-29 11:02:00,76.8,50.7,29.71,WNW,302,0.0,0.0,40,0.00,,,0.00,VWS V14.00,2013-07-29 15:02:00,
2013-07-29 11:07:00,77.0,49.5,29.71,SE,126,2.2,2.2,38,0.00,,,0.00,VWS V14.00,2013-07-29 15:07:00,
2013-07-29 11:12:00,77.2,49.6,29.71,North,1,2.7,3.1,38,0.00,,,0.00,VWS V14.00,2013-07-29 15:12:00,
2013-07-29 11:17:00,77.7,51.5,29.71,East,88,2.7,2.7,40,0.00,,,0.00,VWS V14.00,2013-07-29 15:17:00,
2013-07-29 11:22:00,77.7,50.1,29.71,NNW,331,3.1,3.1,38,0.00,,,0.00,VWS V14.00,2013-07-29 15:22:00,
2013-07-29 11:27:00,78.1,51.1,29.71,SE,128,0.0,0.0,39,0.00,,,0.00,VWS V14.00,2013-07-29 15:27:00,
2013-07-29 11:32:00,78.6,51.6,29.71,SE,143,3.6,3.6,39,0.00,,,0.00,VWS V14.00,2013-07-29 15:32:00,
2013-07-29 11:37:00,78.8,52.5,29.71,NW,309,3.1,3.1,40,0.00,,,0.00,VWS V14.00,2013-07-29 15:37:00,
2013-07-29 11:42:00,78.6,51.6,29.71,NNW,331,3.6,5.4,39,0.00,,,0.00,VWS V14.00,2013-07-29 15:42:00,
2013-07-29 11:47:00,78.6,52.3,29.71,West,272,4.0,4.0,40,0.00,,,0.00,VWS V14.00,2013-07-29 15:47:00,
2013-07-29 11:52:00,78.8,52.5,29.71,West,281,0.0,2.2,40,0.00,,,0.00,VWS V14.00,2013-07-29 15:52:00,
2013-07-29 11:57:00,79.0,51.2,29.71,ENE,74,2.7,3.6,38,0.00,,,0.00,VWS V14.00,2013-07-29 15:57:00,
2013-07-29 12:03:00,79.9,51.3,29.71,ENE,61,3.1,3.1,37,0.00,,,0.00,VWS V14.00,2013-07-29 16:03:00,
2013-07-29 12:08:00,80.4,50.3,29.71,SW,218,4.0,4.0,35,0.00,,,0.00,VWS V14.00,2013-07-29 16:08:00,
2013-07-29 12:13:00,80.4,51.0,29.71,North,357,0.0,0.0,36,0.00,,,0.00,VWS V14.00,2013-07-29 16:13:00,
2013-07-29 12:18:00,80.4,50.3,29.71,SE,136,5.4,5.4,35,0.00,,,0.00,VWS V14.00,2013-07-29 16:18:00,
2013-07-29 12:23:00,80.6,49.7,29.71,East,93,0.0,0.0,34,0.00,,,0.00,VWS V14.00,2013-07-29 16:23:00,
2013-07-29 12:28:00,81.0,49.2,29.71,ENE,73,3.6,3.6,33,0.00,,,0.00,VWS V14.00,2013-07-29 16:28:00,
2013-07-29 12:33:00,81.3,49.5,29.71,South,170,5.8,5.8,33,0.00,,,0.00,VWS V14.00,2013-07-29 16:33:00,
2013-07-29 12:38:00,81.5,49.7,29.71,NNW,335,0.0,0.0,33,0.00,,,0.00,VWS V14.00,2013-07-29 16:38:00,
2013-07-29 12:43:00,81.1,50.1,29.71,SE,130,2.7,2.7,34,0.00,,,0.00,VWS V14.00,2013-07-29 16:43:00,
2013-07-29 12:48:00,80.6,49.7,29.71,SE,131,0.0,0.0,34,0.00,,,0.00,VWS V14.00,2013-07-29 16:48:00,
2013-07-29 12:53:00,80.4,48.7,29.71,NE,46,0.0,0.0,33,0.00,,,0.00,VWS V14.00,2013-07-29 16:53:00,
2013-07-29 12:58:00,80.4,48.7,29.71,NW,304,3.1,3.1,33,0.00,,,0.00,VWS V14.00,2013-07-29 16:58:00,
2013-07-29 13:03:00,80.6,48.9,29.71,NNW,335,0.0,0.0,33,0.00,,,0.00,VWS V14.00,2013-07-29 17:03:00,
2013-07-29 13:08:00,81.0,48.4,29.71,WNW,298,0.0,0.0,32,0.00,,,0.00,VWS V14.00,2013-07-29 17:08:00,
2013-07-29 13:13:00,81.0,49.2,29.71,SW,216,0.0,0.0,33,0.00,,,0.00,VWS V14.00,2013-07-29 17:13:00,
2013-07-29 13:18:00,80.4,49.5,29.71,WSW,254,0.0,0.0,34,0.00,,,0.00,VWS V14.00,2013-07-29 17:18:00,
2013-07-29 13:23:00,80.2,50.1,29.71,NW,311,2.7,2.7,35,0.00,,,0.00,VWS V14.00,2013-07-29 17:23:00,
2013-07-29 13:28:00,80.8,49.8,29.71,SE,125,3.1,3.1,34,0.00,,,0.00,VWS V14.00,2013-07-29 17:28:00,
2013-07-29 13:33:00,81.3,49.5,29.71,NW,323,0.0,0.0,33,0.00,,,0.00,VWS V14.00,2013-07-29 17:33:00,
2013-07-29 13:38:00,81.3,49.5,29.71,WSW,239,0.0,0.0,33,0.00,,,0.00,VWS V14.00,2013-07-29 17:38:00,
2013-07-29 13:43:00,81.7,49.8,29.71,SSE,150,3.1,3.6,33,0.00,,,0.00,VWS V14.00,2013-07-29 17:43:00,
2013-07-29 13:48:00,82.0,50.1,29.71,NW,322,2.7,2.7,33,0.00,,,0.00,VWS V14.00,2013-07-29 17:48:00,
2013-07-29 13:53:00,82.4,49.6,29.71,East,86,2.7,2.7,32,0.00,,,0.00,VWS V14.00,2013-07-29 17:53:00,
2013-07-29 13:58:00,82.0,49.3,29.71,West,259,0.0,2.7,32,0.00,,,0.00,VWS V14.00,2013-07-29 17:58:00,
2013-07-29 14:04:00,81.3,49.5,29.71,North,1,0.0,0.0,33,0.00,,,0.00,VWS V14.00,2013-07-29 18:04:00,
2013-07-29 14:09:00,81.1,49.3,29.71,WNW,283,3.1,3.1,33,0.00,,,0.00,VWS V14.00,2013-07-29 18:09:00,
2013-07-29 14:14:00,81.5,49.7,29.68,SSW,195,0.0,0.0,33,0.00,,,0.00,VWS V14.00,2013-07-29 18:14:00,
2013-07-29 14:19:00,82.0,49.3,29.68,SW,230,3.1,5.4,32,0.00,,,0.00,VWS V14.00,2013-07-29 18:19:00,
2013-07-29 14:24:00,82.6,48.9,29.68,NNE,27,0.0,0.0,31,0.00,,,0.00,VWS V14.00,2013-07-29 18:24:00,
2013-07-29 14:29:00,83.1,49.4,29.68,SSE,157,0.0,0.0,31,0.00,,,0.00,VWS V14.00,2013-07-29 18:29:00,
2013-07-29 14:34:00,83.7,49.8,29.68,NE,55,2.2,2.7,31,0.00,,,0.00,VWS V14.00,2013-07-29 18:34:00,
2013-07-29 14:39:00,84.0,50.2,29.68,NNW,340,0.0,2.7,31,0.00,,,0.00,VWS V14.00,2013-07-29 18:39:00,
2013-07-29 14:44:00,84.2,50.3,29.68,WSW,252,5.8,8.1,31,0.00,,,0.00,VWS V14.00,2013-07-29 18:44:00,
2013-07-29 14:49:00,84.0,50.2,29.68,NNW,327,0.0,3.1,31,0.00,,,0.00,VWS V14.00,2013-07-29 18:49:00,
2013-07-29 14:54:00,82.6,49.8,29.68,SW,227,0.0,0.0,32,0.00,,,0.00,VWS V14.00,2013-07-29 18:54:00,
2013-07-29 14:59:00,81.9,49.1,29.68,SSW,210,0.0,0.0,32,0.00,,,0.00,VWS V14.00,2013-07-29 18:59:00,
2013-07-29 15:04:00,81.1,49.3,29.68,SSW,202,2.7,2.7,33,0.00,,,0.00,VWS V14.00,2013-07-29 19:04:00,
2013-07-29 15:09:00,80.8,49.0,29.68,SW,216,3.1,3.1,33,0.00,,,0.00,VWS V14.00,2013-07-29 19:09:00,
2013-07-29 15:14:00,80.4,48.7,29.68,SW,228,0.0,0.0,33,0.00,,,0.00,VWS V14.00,2013-07-29 19:14:00,
2013-07-29 15:19:00,80.6,48.9,29.68,WSW,251,2.7,2.7,33,0.00,,,0.00,VWS V14.00,2013-07-29 19:19:00,
2013-07-29 15:24:00,81.5,49.7,29.68,SW,236,2.2,2.2,33,0.00,,,0.00,VWS V14.00,2013-07-29 19:24:00,
2013-07-29 15:29:00,82.0,50.1,29.68,West,260,2.7,2.7,33,0.00,,,0.00,VWS V14.00,2013-07-29 19:29:00,
2013-07-29 15:34:00,82.2,50.3,29.68,NNW,336,0.0,0.0,33,0.00,,,0.00,VWS V14.00,2013-07-29 19:34:00,
2013-07-29 15:39:00,82.6,49.8,29.68,NNW,329,2.2,2.7,32,0.00,,,0.00,VWS V14.00,2013-07-29 19:39:00,
2013-07-29 15:44:00,83.3,50.4,29.68,ENE,74,0.0,0.0,32,0.00,,,0.00,VWS V14.00,2013-07-29 19:44:00,
2013-07-29 15:49:00,84.2,50.3,29.68,NNW,335,0.0,0.0,31,0.00,,,0.00,VWS V14.00,2013-07-29 19:49:00,
2013-07-29 15:55:00,85.6,50.7,29.68,NE,41,0.0,0.0,30,0.00,,,0.00,VWS V14.00,2013-07-29 19:55:00,
2013-07-29 16:00:00,86.5,51.5,29.68,WSW,241,0.0,0.0,30,0.00,,,0.00,VWS V14.00,2013-07-29 20:00:00,
2013-07-29 16:05:00,87.1,51.9,29.68,East,100,0.0,2.2,30,0.00,,,0.00,VWS V14.00,2013-07-29 20:05:00,
2013-07-29 16:10:00,88.3,52.1,29.68,SSE,153,3.1,3.6,29,0.00,,,0.00,VWS V14.00,2013-07-29 20:10:00,
2013-07-29 16:15:00,89.1,52.7,29.68,WSW,237,3.1,4.0,29,0.00,,,0.00,VWS V14.00,2013-07-29 20:15:00,
2013-07-29 16:20:00,90.1,53.6,29.68,NW,311,0.0,0.0,29,0.00,,,0.00,VWS V14.00,2013-07-29 20:20:00,
2013-07-29 16:25:00,90.3,53.8,29.68,SSW,213,2.7,2.7,29,0.00,,,0.00,VWS V14.00,2013-07-29 20:25:00,
2013-07-29 16:30:00,90.1,53.6,29.68,WSW,242,0.0,0.0,29,0.00,,,0.00,VWS V14.00,2013-07-29 20:30:00,
2013-07-29 16:35:00,89.8,53.3,29.68,West,264,2.2,2.2,29,0.00,,,0.00,VWS V14.00,2013-07-29 20:35:00,
2013-07-29 16:40:00,89.2,52.9,29.68,WSW,241,3.6,3.6,29,0.00,,,0.00,VWS V14.00,2013-07-29 20:40:00,
2013-07-29 16:45:00,88.9,52.5,29.68,NW,324,3.1,3.1,29,0.00,,,0.00,VWS V14.00,2013-07-29 20:45:00,
2013-07-29 16:50:00,88.7,52.4,29.68,SSW,210,2.7,2.7,29,0.00,,,0.00,VWS V14.00,2013-07-29 20:50:00,
2013-07-29 16:55:00,88.7,52.4,29.68,SW,230,3.6,3.6,29,0.00,,,0.00,VWS V14.00,2013-07-29 20:55:00,
2013-07-29 17:00:00,89.1,52.7,29.68,SW,230,0.0,0.0,29,0.00,,,0.00,VWS V14.00,2013-07-29 21:00:00,
2013-07-29 17:05:00,89.2,52.9,29.68,ESE,113,0.0,0.0,29,0.00,,,0.00,VWS V14.00,2013-07-29 21:05:00,
2013-07-29 17:10:00,88.7,52.4,29.68,SW,224,0.0,0.0,29,0.00,,,0.00,VWS V14.00,2013-07-29 21:10:00,
2013-07-29 17:15:00,88.3,52.1,29.68,SW,224,0.0,0.0,29,0.00,,,0.00,VWS V14.00,2013-07-29 21:15:00,
2013-07-29 17:21:00,88.2,51.9,29.68,NNW,327,0.0,0.0,29,0.00,,,0.00,VWS V14.00,2013-07-29 21:21:00,
2013-07-29 17:26:00,87.4,51.3,29.71,West,260,0.0,0.0,29,0.00,,,0.00,VWS V14.00,2013-07-29 21:26:00,
2013-07-29 17:31:00,86.9,50.8,29.71,West,260,0.0,0.0,29,0.00,,,0.00,VWS V14.00,2013-07-29 21:31:00,
2013-07-29 17:36:00,85.8,50.8,29.71,West,260,0.0,0.0,30,0.00,,,0.00,VWS V14.00,2013-07-29 21:36:00,
2013-07-29 17:41:00,85.1,50.2,29.71,West,260,0.0,0.0,30,0.00,,,0.00,VWS V14.00,2013-07-29 21:41:00,
2013-07-29 17:46:00,84.4,49.6,29.71,WSW,244,0.0,0.0,30,0.00,,,0.00,VWS V14.00,2013-07-29 21:46:00,
2013-07-29 17:51:00,84.0,50.2,29.71,SSW,205,0.0,0.0,31,0.00,,,0.00,VWS V14.00,2013-07-29 21:51:00,
2013-07-29 17:56:00,83.7,49.8,29.68,SW,230,0.0,0.0,31,0.00,,,0.00,VWS V14.00,2013-07-29 21:56:00,
2013-07-29 18:01:00,83.8,50.0,29.68,SW,233,2.2,2.2,31,0.00,,,0.00,VWS V14.00,2013-07-29 22:01:00,
2013-07-29 18:06:00,83.8,50.0,29.68,SSW,212,2.7,2.7,31,0.00,,,0.00,VWS V14.00,2013-07-29 22:06:00,
2013-07-29 18:11:00,83.3,49.5,29.68,WSW,246,3.1,4.0,31,0.00,,,0.00,VWS V14.00,2013-07-29 22:11:00,
2013-07-29 18:16:00,83.1,49.4,29.68,WSW,241,0.0,0.0,31,0.00,,,0.00,VWS V14.00,2013-07-29 22:16:00,
2013-07-29 18:21:00,82.2,49.5,29.68,West,272,0.0,0.0,32,0.00,,,0.00,VWS V14.00,2013-07-29 22:21:00,
2013-07-29 18:26:00,81.7,49.0,29.68,WSW,251,3.1,3.1,32,0.00,,,0.00,VWS V14.00,2013-07-29 22:26:00,
2013-07-29 18:31:00,81.1,48.5,29.68,WSW,244,2.2,2.2,32,0.00,,,0.00,VWS V14.00,2013-07-29 22:31:00,
2013-07-29 18:36:00,81.0,48.4,29.68,SW,233,0.0,0.0,32,0.00,,,0.00,VWS V14.00,2013-07-29 22:36:00,
2013-07-29 18:42:00,80.6,48.9,29.68,WNW,293,0.0,0.0,33,0.00,,,0.00,VWS V14.00,2013-07-29 22:42:00,
2013-07-29 18:47:00,80.2,48.5,29.68,WNW,293,0.0,0.0,33,0.00,,,0.00,VWS V14.00,2013-07-29 22:47:00,
2013-07-29 18:52:00,80.1,49.2,29.68,WNW,293,0.0,0.0,34,0.00,,,0.00,VWS V14.00,2013-07-29 22:52:00,
2013-07-29 18:57:00,79.7,48.9,29.71,WNW,293,0.0,0.0,34,0.00,,,0.00,VWS V14.00,2013-07-29 22:57:00,
2013-07-29 19:02:00,79.5,48.7,29.71,WNW,293,0.0,0.0,34,0.00,,,0.00,VWS V14.00,2013-07-29 23:02:00,
2013-07-29 19:07:00,79.5,49.5,29.71,WNW,293,0.0,0.0,35,0.00,,,0.00,VWS V14.00,2013-07-29 23:07:00,
2013-07-29 19:12:00,79.2,48.4,29.71,WNW,293,0.0,0.0,34,0.00,,,0.00,VWS V14.00,2013-07-29 23:12:00,
2013-07-29 19:17:00,79.0,48.2,29.71,WNW,293,0.0,0.0,34,0.00,,,0.00,VWS V14.00,2013-07-29 23:17:00,
2013-07-29 19:22:00,78.6,48.7,29.71,WNW,293,0.0,0.0,35,0.00,,,0.00,VWS V14.00,2013-07-29 23:22:00,
2013-07-29 19:27:00,78.4,49.3,29.71,WNW,293,0.0,0.0,36,0.00,,,0.00,VWS V14.00,2013-07-29 23:27:00,
2013-07-29 19:32:00,78.1,49.7,29.71,WNW,293,0.0,0.0,37,0.00,,,0.00,VWS V14.00,2013-07-29 23:32:00,
2013-07-29 19:37:00,77.7,50.8,29.71,WNW,293,0.0,0.0,39,0.00,,,0.00,VWS V14.00,2013-07-29 23:37:00,
2013-07-29 19:42:00,77.5,52.0,29.71,WNW,293,0.0,0.0,41,0.00,,,0.00,VWS V14.00,2013-07-29 23:42:00,
2013-07-29 19:47:00,77.2,51.0,29.71,WNW,293,0.0,0.0,40,0.00,,,0.00,VWS V14.00,2013-07-29 23:47:00,
2013-07-29 19:52:00,77.0,51.5,29.71,WNW,293,0.0,0.0,41,0.00,,,0.00,VWS V14.00,2013-07-29 23:52:00,
2013-07-29 19:57:00,76.6,51.2,29.71,WNW,293,0.0,0.0,41,0.00,,,0.00,VWS V14.00,2013-07-29 23:57:00,
2013-07-29 20:02:00,76.3,51.5,29.71,WNW,293,0.0,0.0,42,0.00,,,0.00,VWS V14.00,2013-07-30 00:02:00,
2013-07-29 20:07:00,75.9,51.8,29.71,WNW,293,0.0,0.0,43,0.00,,,0.00,VWS V14.00,2013-07-30 00:07:00,
2013-07-29 20:12:00,75.6,51.5,29.71,WNW,293,0.0,0.0,43,0.00,,,0.00,VWS V14.00,2013-07-30 00:12:00,
2013-07-29 20:17:00,75.4,51.3,29.71,WNW,293,0.0,0.0,43,0.00,,,0.00,VWS V14.00,2013-07-30 00:17:00,
2013-07-29 20:23:00,75.2,51.8,29.71,WNW,293,0.0,0.0,44,0.00,,,0.00,VWS V14.00,2013-07-30 00:23:00,
2013-07-29 20:28:00,74.7,51.9,29.71,WNW,293,0.0,0.0,45,0.00,,,0.00,VWS V14.00,2013-07-30 00:28:00,
2013-07-29 20:33:00,74.3,51.6,29.71,WNW,293,0.0,0.0,45,0.00,,,0.00,VWS V14.00,2013-07-30 00:33:00,
2013-07-29 20:38:00,73.9,51.9,29.71,WNW,293,0.0,0.0,46,0.00,,,0.00,VWS V14.00,2013-07-30 00:38:00,
2013-07-29 20:43:00,73.6,52.1,29.74,WNW,293,0.0,0.0,47,0.00,,,0.00,VWS V14.00,2013-07-30 00:43:00,
2013-07-29 20:48:00,73.2,52.4,29.74,WNW,293,0.0,0.0,48,0.00,,,0.00,VWS V14.00,2013-07-30 00:48:00,
2013-07-29 20:53:00,73.0,52.2,29.74,WNW,293,0.0,0.0,48,0.00,,,0.00,VWS V14.00,2013-07-30 00:53:00,
2013-07-29 20:58:00,72.7,51.9,29.74,WNW,293,0.0,0.0,48,0.00,,,0.00,VWS V14.00,2013-07-30 00:58:00,
2013-07-29 21:03:00,72.5,52.8,29.74,WNW,293,0.0,0.0,50,0.00,,,0.00,VWS V14.00,2013-07-30 01:03:00,
2013-07-29 21:08:00,72.5,52.8,29.74,WNW,293,0.0,0.0,50,0.00,,,0.00,VWS V14.00,2013-07-30 01:08:00,
2013-07-29 21:13:00,72.1,52.5,29.74,WNW,293,0.0,0.0,50,0.00,,,0.00,VWS V14.00,2013-07-30 01:13:00,
2013-07-29 21:18:00,72.1,53.0,29.74,WNW,293,0.0,0.0,51,0.00,,,0.00,VWS V14.00,2013-07-30 01:18:00,
2013-07-29 21:23:00,72.0,53.4,29.74,WNW,293,0.0,0.0,52,0.00,,,0.00,VWS V14.00,2013-07-30 01:23:00,
2013-07-29 21:28:00,72.0,53.9,29.74,WNW,293,0.0,0.0,53,0.00,,,0.00,VWS V14.00,2013-07-30 01:28:00,
2013-07-29 21:33:00,71.8,54.3,29.74,WNW,293,0.0,0.0,54,0.00,,,0.00,VWS V14.00,2013-07-30 01:33:00,
2013-07-29 21:38:00,71.8,54.8,29.74,WNW,293,0.0,0.0,55,0.00,,,0.00,VWS V14.00,2013-07-30 01:38:00,
2013-07-29 21:43:00,71.6,54.6,29.74,WNW,293,0.0,0.0,55,0.00,,,0.00,VWS V14.00,2013-07-30 01:43:00,
2013-07-29 21:48:00,71.6,54.6,29.74,NW,304,0.0,0.0,55,0.00,,,0.00,VWS V14.00,2013-07-30 01:48:00,
2013-07-29 21:53:00,71.6,54.6,29.74,NW,304,0.0,0.0,55,0.00,,,0.00,VWS V14.00,2013-07-30 01:53:00,
2013-07-29 21:58:00,71.4,53.4,29.74,NW,304,0.0,0.0,53,0.00,,,0.00,VWS V14.00,2013-07-30 01:58:00,
2013-07-29 22:03:00,71.4,53.4,29.74,NW,304,0.0,0.0,53,0.00,,,0.00,VWS V14.00,2013-07-30 02:03:00,
2013-07-29 22:08:00,71.4,53.4,29.74,NW,304,0.0,0.0,53,0.00,,,0.00,VWS V14.00,2013-07-30 02:08:00,
2013-07-29 22:13:00,71.4,53.4,29.74,NW,304,0.0,0.0,53,0.00,,,0.00,VWS V14.00,2013-07-30 02:13:00,
2013-07-29 22:18:00,71.2,52.7,29.74,NW,304,0.0,0.0,52,0.00,,,0.00,VWS V14.00,2013-07-30 02:18:00,
2013-07-29 22:23:00,70.9,51.9,29.74,NW,304,0.0,0.0,51,0.00,,,0.00,VWS V14.00,2013-07-30 02:23:00,
2013-07-29 22:28:00,70.7,51.2,29.74,NW,304,0.0,0.0,50,0.00,,,0.00,VWS V14.00,2013-07-30 02:28:00,
2013-07-29 22:34:00,70.5,51.0,29.74,NW,304,0.0,0.0,50,0.00,,,0.00,VWS V14.00,2013-07-30 02:34:00,
2013-07-29 22:39:00,70.3,50.8,29.74,NW,304,0.0,0.0,50,0.00,,,0.00,VWS V14.00,2013-07-30 02:39:00,
2013-07-29 22:44:00,70.3,50.8,29.74,NW,304,0.0,0.0,50,0.00,,,0.00,VWS V14.00,2013-07-30 02:44:00,
2013-07-29 22:49:00,70.2,50.7,29.74,NW,304,0.0,0.0,50,0.00,,,0.00,VWS V14.00,2013-07-30 02:49:00,
2013-07-29 22:54:00,70.0,50.0,29.74,NW,304,0.0,0.0,49,0.00,,,0.00,VWS V14.00,2013-07-30 02:54:00,
2013-07-29 22:59:00,69.8,49.8,29.74,NW,304,0.0,0.0,49,0.00,,,0.00,VWS V14.00,2013-07-30 02:59:00,
2013-07-29 23:04:00,69.6,49.6,29.74,NW,304,0.0,0.0,49,0.00,,,0.00,VWS V14.00,2013-07-30 03:04:00,
2013-07-29 23:09:00,69.6,49.6,29.74,NW,304,0.0,0.0,49,0.00,,,0.00,VWS V14.00,2013-07-30 03:09:00,
2013-07-29 23:14:00,69.4,49.5,29.74,NW,304,0.0,0.0,49,0.00,,,0.00,VWS V14.00,2013-07-30 03:14:00,
2013-07-29 23:19:00,69.3,48.8,29.74,NW,304,0.0,0.0,48,0.00,,,0.00,VWS V14.00,2013-07-30 03:19:00,
2013-07-29 23:24:00,69.1,48.6,29.77,NW,304,0.0,0.0,48,0.00,,,0.00,VWS V14.00,2013-07-30 03:24:00,
2013-07-29 23:30:00,68.9,48.4,29.77,NW,304,0.0,0.0,48,0.00,,,0.00,VWS V14.00,2013-07-30 03:30:00,
2013-07-29 23:35:00,68.7,48.8,29.77,NW,304,0.0,0.0,49,0.00,,,0.00,VWS V14.00,2013-07-30 03:35:00,
2013-07-29 23:40:00,68.5,48.6,29.77,NW,304,0.0,0.0,49,0.00,,,0.00,VWS V14.00,2013-07-30 03:40:00,
2013-07-29 23:45:00,68.4,48.5,29.77,NW,304,0.0,0.0,49,0.00,,,0.00,VWS V14.00,2013-07-30 03:45:00,
2013-07-29 23:50:00,68.4,49.0,29.77,NW,304,0.0,0.0,50,0.00,,,0.00,VWS V14.00,2013-07-30 03:50:00,
2013-07-29 23:55:00,68.2,48.8,29.77,NW,304,0.0,0.0,50,0.00,,,0.00,VWS V14.00,2013-07-30 03:55:00,